Wind_Speed
25 25 24 24 23 23 23 23 23 23 23 23 23 23 24 24 23 23 23 23 24 24 24 25 25 25 25 25 26 26 26 27 28 28 28 29 29 29 29 29 30 30 30
28 27 26 26 25 25 25 25 25 25 25 25 25 25 25 25 24 24 25 25 25 26 26 27 27 27 27 27 28 28 28 28 29 29 30 30 30 30 30 30 31 31 31
30 29 28 28 28 28 28 27 27 27 26 26 26 26 26 26 27 27 27 27 27 27 28 28 28 28 28 29 29 29 29 30 30 30 30 31 31 32 32 31 31 32 32
32 31 31 31 30 30 30 29 29 29 29 28 28 28 29 29 29 29 29 29 28 29 29 29 29 30 30 30 30 30 30 31 31 31 32 32 33 33 33 33 33 33 34
33 33 33 33 32 32 32 32 32 31 31 31 31 31 31 31 31 31 31 30 30 30 31 31 31 31 32 32 32 32 32 32 33 33 34 34 35 35 35 35 35 35 36
36 35 35 34 34 34 34 33 33 33 33 33 32 32 32 32 32 32 32 32 32 32 32 32 32 32 33 33 34 34 33 34 34 35 36 36 36 36 36 36 36 37 38
38 38 37 37 36 36 35 35 35 35 34 34 34 33 33 33 34 34 34 34 34 34 34 34 33 34 34 35 35 35 34 35 36 37 37 37 37 37 37 37 38 39 39
40 40 40 39 39 38 37 37 37 36 36 36 36 35 35 34 34 35 35 35 35 35 34 34 35 35 35 36 36 36 37 38 38 38 39 39 38 38 38 39 39 39 39
42 42 42 41 41 41 40 39 39 38 37 37 37 36 36 36 35 36 36 37 37 36 35 36 36 36 37 37 38 39 39 40 40 40 39 39 38 38 39 39 40 40 40
43 43 43 43 43 43 42 42 42 41 40 38 38 38 37 38 38 38 38 38 37 37 36 37 38 38 39 40 40 40 40 40 40 40 39 38 38 38 39 39 39 40 40
45 45 44 44 44 44 44 43 43 43 43 42 41 40 40 39 40 40 39 39 39 39 39 40 40 41 41 41 41 41 41 41 41 41 40 39 39 39 39 39 40 40 41
46 46 46 46 45 45 44 45 44 44 44 44 44 43 42 41 41 42 41 41 41 41 41 42 42 42 42 42 42 42 42 41 41 41 40 40 40 40 40 41 41 42 42
47 46 46 46 46 46 46 45 45 46 46 45 45 44 44 43 43 43 43 44 43 42 42 42 43 43 43 43 43 42 42 42 41 41 41 41 41 41 41 42 42 43 44
50 50 48 48 48 48 48 47 47 47 47 47 46 46 46 45 45 45 45 45 45 44 43 43 44 44 43 44 43 43 42 42 41 41 41 42 42 42 42 43 44 45 46
51 52 51 50 50 51 50 49 49 49 48 48 48 47 47 47 47 46 46 46 46 45 44 44 44 44 44 44 44 43 42 41 41 41 42 42 43 44 45 45 46 47 48
52 51 52 52 52 52 52 51 52 51 51 50 49 48 48 47 46 47 47 47 47 47 46 45 45 45 44 43 43 43 42 42 43 43 43 44 45 45 46 47 48 49 49
52 52 52 52 53 53 53 53 52 52 52 51 51 50 49 49 48 47 47 48 48 47 47 45 45 45 44 44 43 43 43 43 44 45 45 46 46 47 48 48 49 49 49
52 52 52 53 53 53 52 52 52 53 52 52 51 50 50 49 49 49 49 48 48 48 47 46 46 45 45 45 45 44 45 45 46 46 47 47 47 48 48 48 49 48 47
52 53 53 54 53 52 52 52 52 52 52 51 50 50 49 49 49 49 49 49 48 48 48 47 46 47 46 46 46 46 46 47 47 48 48 48 49 49 49 48 48 47 47
51 52 54 55 55 55 54 53 53 53 53 52 51 50 50 50 50 49 49 49 49 48 48 47 47 47 47 47 47 47 47 47 48 49 49 49 50 49 49 48 48 48 48
51 52 53 53 53 53 53 53 54 53 52 51 51 51 51 51 51 50 50 50 49 49 49 48 48 48 48 49 49 49 49 49 48 49 49 49 50 50 49 48 48 48 47
52 52 52 53 53 54 54 53 52 52 51 51 51 52 51 51 51 51 51 50 50 50 50 49 49 49 50 50 50 50 51 50 49 49 49 49 49 49 49 48 48 48 47
51 52 52 52 53 53 53 53 53 52 52 52 52 52 51 51 50 51 51 51 50 50 50 50 50 50 50 50 50 51 51 50 50 50 49 49 49 49 48 47 48 47 46
50 51 51 50 51 52 52 52 52 53 53 53 52 52 52 52 51 51 51 50 50 50 49 49 49 49 49 50 50 51 51 50 50 50 49 49 48 48 47 47 48 47 45
49 50 50 50 50 51 51 51 51 52 52 52 52 52 52 52 52 51 50 50 49 48 48 48 49 49 49 49 49 50 50 50 50 50 49 49 48 48 47 47 47 46 45
48 48 48 48 49 50 50 50 50 50 51 51 50 50 50 51 50 50 50 49 49 48 48 48 48 49 49 50 50 50 50 49 49 49 48 48 48 47 45 45 46 45 44
Wind_Direction
253 255 257 259 262 264 267 270 273 274 275 276 279 282 284 286 286 287 290 293 295 296 297 298 299 298 299 299 300 301 302 302 301 301 302 303 303 301 300 299 299 297 296
253 255 257 259 262 264 267 270 272 274 274 276 277 280 282 284 284 286 289 291 292 294 295 296 297 297 297 298 299 300 300 301 301 301 301 301 301 301 300 298 298 297 297
253 254 257 259 262 264 267 270 272 273 275 276 277 278 279 281 282 284 287 289 290 292 293 294 295 296 296 297 298 299 299 300 300 300 300 301 300 300 299 298 297 297 296
254 256 258 259 262 264 266 269 271 273 274 275 276 277 279 280 282 283 284 286 288 290 291 292 293 294 295 296 297 298 299 299 299 300 300 300 300 299 299 298 298 297 296
255 257 259 260 262 264 266 268 270 272 274 275 275 276 278 279 281 281 283 284 287 288 289 290 292 293 294 295 296 297 298 298 298 299 299 299 299 298 299 298 298 298 297
255 257 259 261 263 265 266 268 270 272 273 274 275 276 277 278 279 280 282 283 285 286 287 289 290 291 292 293 294 295 296 297 297 298 298 298 298 298 298 298 298 298 297
256 257 259 261 263 264 266 267 269 271 272 273 274 275 277 279 279 279 280 282 284 285 287 288 289 290 291 292 293 294 294 296 297 297 298 297 297 296 297 297 298 297 297
256 258 259 261 262 264 265 266 267 268 270 272 273 274 276 277 278 278 280 282 283 284 286 288 289 289 290 292 292 293 294 295 296 297 297 297 296 296 296 297 297 297 296
256 258 259 260 262 264 266 267 267 268 269 271 271 273 274 275 275 277 279 282 282 284 286 288 288 289 290 291 292 292 293 295 296 297 297 296 296 296 297 297 297 296 295
256 257 259 260 262 264 265 266 267 267 268 270 271 270 273 275 275 277 279 280 282 284 286 287 288 290 291 291 291 292 293 295 296 296 296 296 296 297 297 297 296 296 296
257 258 259 260 262 263 265 265 266 266 267 268 270 271 272 274 276 277 278 278 280 283 285 287 289 290 290 290 291 292 292 293 294 294 295 295 296 296 296 296 296 295 296
256 257 259 260 262 263 265 265 265 266 266 267 269 270 271 273 275 277 277 277 279 282 284 286 288 289 290 290 290 291 292 292 293 293 293 294 295 295 295 296 296 296 296
257 258 259 260 262 263 264 264 264 265 267 267 269 270 272 274 275 276 277 278 279 282 283 285 286 287 288 289 290 290 291 291 291 292 292 293 294 294 295 296 296 296 296
259 260 260 260 261 263 264 264 265 267 268 268 269 270 272 273 274 275 276 277 278 281 282 283 285 287 288 289 290 290 290 290 290 291 291 292 293 294 295 295 296 296 297
260 261 261 261 262 263 264 265 267 268 268 269 269 270 271 272 273 274 275 277 279 280 281 283 284 286 287 288 288 289 289 289 290 290 291 292 293 294 295 295 296 296 297
260 261 261 261 262 264 265 265 266 266 267 268 268 269 270 271 273 274 275 277 279 281 281 282 284 285 286 286 287 287 287 288 289 291 291 293 294 295 296 296 296 296 297
261 262 261 262 263 263 265 265 266 266 268 268 268 268 269 270 272 273 275 276 278 279 280 282 283 284 284 284 285 286 287 289 290 291 293 294 295 295 296 296 296 296 296
260 261 262 263 263 263 264 265 266 267 266 267 268 269 269 270 271 272 274 275 276 278 279 281 282 283 283 283 284 285 286 288 290 291 293 294 295 295 296 295 296 296 295
260 260 261 262 263 263 264 265 266 266 266 267 267 268 268 270 271 271 273 274 276 278 279 281 282 283 283 283 284 286 288 290 291 292 293 293 294 295 295 295 295 295 295
261 261 262 262 263 264 264 265 266 266 267 266 267 267 268 270 272 274 274 275 276 277 279 280 281 281 282 283 284 286 287 288 290 291 292 293 294 295 295 295 295 295 295
262 263 263 264 264 265 266 266 266 267 266 267 268 270 272 273 274 275 275 276 276 277 278 278 279 280 281 282 284 285 286 287 289 291 292 293 295 295 295 295 295 295 296
263 264 263 263 264 264 265 265 266 266 268 269 270 271 273 274 274 275 275 276 276 276 276 277 278 280 280 282 283 285 286 287 289 290 291 293 294 295 295 294 294 295 296
263 263 263 263 264 264 265 265 266 266 267 269 270 271 271 272 272 273 274 275 275 275 275 276 278 280 281 282 283 285 287 288 290 291 291 292 293 293 294 293 294 295 296
263 264 263 263 264 264 264 265 266 266 266 268 270 270 270 270 271 272 273 274 274 274 276 277 278 279 281 282 284 285 287 288 289 290 291 292 292 292 292 292 294 295 295
264 264 263 264 265 265 265 265 266 267 268 269 270 270 269 270 271 272 272 273 274 275 276 276 277 279 281 283 284 285 286 288 289 290 290 292 292 291 291 292 293 295 295
265 265 265 266 267 267 266 266 267 268 269 269 269 269 269 270 270 271 272 273 273 275 275 276 278 280 282 283 284 286 287 288 290 290 290 291 291 290 289 291 292 293 294
Height
5857 5858 5858 5859 5859 5859 5859 5858 5858 5858 5857 5857 5856 5855 5854 5852 5851 5850 5848 5847 5845 5843 5841 5839 5837 5835 5833 5831 5829 5827 5824 5822 5819 5816 5814 5811 5809 5806 5803 5800 5798 5795 5793
5851 5852 5853 5854 5854 5854 5854 5853 5853 5853 5852 5852 5851 5850 5849 5847 5846 5845 5843 5842 5840 5838 5837 5834 5832 5830 5828 5826 5823 5821 5819 5816 5814 5811 5808 5806 5803 5800 5797 5794 5791 5789 5786
5846 5846 5847 5848 5848 5848 5848 5848 5848 5847 5847 5846 5845 5844 5843 5842 5841 5839 5838 5836 5835 5833 5831 5829 5827 5825 5822 5820 5818 5815 5813 5810 5808 5805 5802 5799 5796 5793 5790 5787 5785 5782 5779
5839 5840 5841 5841 5842 5842 5842 5842 5842 5841 5841 5840 5840 5839 5837 5836 5835 5834 5832 5830 5829 5827 5825 5823 5821 5819 5816 5814 5812 5809 5807 5804 5801 5798 5795 5792 5789 5786 5783 5780 5777 5774 5771
5832 5833 5834 5834 5835 5835 5835 5835 5835 5835 5834 5834 5833 5832 5831 5830 5829 5827 5826 5824 5822 5820 5818 5816 5814 5812 5810 5807 5805 5803 5800 5797 5794 5791 5788 5785 5782 5779 5775 5772 5769 5766 5763
5824 5825 5826 5827 5828 5828 5828 5828 5828 5828 5827 5827 5826 5825 5824 5823 5822 5820 5819 5817 5816 5814 5811 5809 5807 5805 5803 5800 5798 5795 5793 5790 5787 5784 5780 5777 5774 5770 5767 5764 5760 5757 5754
5816 5818 5819 5819 5820 5820 5821 5821 5821 5820 5820 5819 5819 5818 5817 5816 5814 5813 5812 5810 5808 5806 5804 5802 5800 5798 5796 5793 5790 5788 5785 5782 5779 5775 5772 5768 5765 5761 5758 5755 5751 5747 5744
5808 5809 5810 5811 5811 5812 5812 5812 5812 5812 5812 5811 5811 5810 5809 5809 5807 5806 5804 5802 5800 5798 5796 5794 5792 5790 5787 5785 5782 5779 5776 5773 5770 5766 5763 5759 5756 5752 5749 5745 5742 5738 5734
5799 5800 5801 5802 5803 5803 5804 5804 5804 5804 5804 5803 5802 5802 5801 5801 5799 5798 5796 5795 5793 5791 5788 5786 5784 5781 5779 5776 5773 5770 5767 5763 5760 5756 5753 5750 5746 5743 5739 5736 5732 5728 5724
5789 5790 5791 5792 5793 5794 5794 5794 5795 5795 5794 5794 5793 5793 5792 5791 5790 5790 5788 5786 5784 5782 5780 5778 5775 5772 5770 5767 5764 5761 5757 5754 5751 5747 5744 5740 5737 5733 5730 5726 5722 5718 5715
5779 5780 5781 5782 5783 5783 5784 5784 5784 5784 5784 5784 5784 5783 5782 5781 5780 5780 5779 5778 5775 5773 5771 5768 5766 5763 5760 5757 5754 5751 5748 5745 5741 5738 5735 5731 5728 5724 5720 5717 5713 5709 5705
5768 5769 5770 5771 5772 5773 5773 5774 5774 5774 5774 5774 5774 5773 5773 5772 5771 5770 5769 5768 5766 5764 5761 5758 5756 5753 5751 5748 5745 5741 5738 5735 5732 5728 5725 5722 5718 5714 5711 5707 5703 5699 5695
5757 5758 5759 5760 5761 5762 5762 5763 5763 5764 5763 5763 5763 5763 5762 5762 5761 5760 5758 5758 5756 5755 5752 5749 5746 5743 5741 5738 5735 5732 5728 5725 5722 5719 5715 5712 5708 5705 5701 5697 5693 5689 5685
5746 5747 5748 5749 5749 5750 5751 5752 5752 5752 5753 5752 5752 5752 5752 5751 5750 5749 5748 5747 5746 5745 5742 5739 5736 5733 5731 5727 5724 5721 5718 5715 5712 5709 5705 5702 5698 5695 5691 5687 5682 5678 5674
5734 5735 5736 5737 5738 5739 5739 5740 5741 5741 5741 5741 5741 5741 5740 5740 5739 5738 5737 5735 5734 5733 5732 5729 5726 5723 5720 5717 5714 5711 5708 5705 5701 5698 5695 5691 5688 5684 5680 5676 5671 5667 5662
5723 5724 5725 5726 5726 5727 5728 5728 5729 5729 5729 5729 5729 5728 5728 5728 5728 5727 5725 5724 5722 5721 5720 5718 5715 5712 5709 5706 5703 5700 5697 5694 5691 5688 5684 5681 5677 5673 5669 5664 5659 5655 5650
5711 5712 5713 5714 5714 5715 5715 5716 5716 5716 5717 5717 5716 5716 5716 5716 5715 5715 5714 5712 5711 5709 5708 5706 5703 5701 5698 5695 5692 5689 5686 5683 5680 5677 5673 5670 5666 5661 5657 5652 5647 5642 5637
5698 5699 5700 5701 5701 5702 5703 5703 5704 5704 5704 5704 5704 5704 5704 5703 5703 5702 5701 5700 5698 5697 5696 5694 5692 5689 5687 5684 5681 5678 5675 5672 5669 5666 5662 5658 5654 5649 5645 5640 5635 5630 5625
5685 5686 5687 5688 5689 5689 5690 5690 5691 5691 5691 5691 5691 5691 5691 5691 5690 5689 5688 5687 5686 5685 5683 5682 5680 5678 5675 5672 5670 5667 5664 5661 5657 5654 5650 5646 5641 5637 5632 5627 5622 5618 5613
5672 5673 5674 5675 5676 5676 5677 5677 5678 5678 5678 5678 5678 5678 5678 5678 5677 5676 5675 5674 5674 5672 5671 5669 5668 5666 5663 5660 5658 5656 5653 5649 5646 5642 5638 5633 5629 5624 5619 5615 5610 5605 5601
5659 5660 5661 5662 5662 5663 5663 5664 5665 5665 5665 5665 5665 5665 5664 5664 5663 5662 5662 5661 5660 5659 5658 5657 5655 5653 5651 5649 5646 5644 5641 5638 5634 5629 5625 5621 5616 5612 5607 5602 5597 5593 5589
5646 5647 5647 5648 5648 5649 5650 5650 5651 5651 5651 5651 5652 5651 5651 5650 5650 5649 5648 5647 5647 5646 5645 5644 5642 5640 5638 5636 5634 5631 5628 5625 5622 5618 5613 5609 5604 5599 5594 5590 5585 5581 5576
5632 5633 5633 5634 5634 5635 5635 5636 5636 5637 5638 5638 5638 5638 5637 5637 5636 5636 5635 5634 5633 5632 5631 5630 5629 5627 5626 5623 5621 5618 5614 5610 5607 5603 5600 5596 5591 5586 5581 5577 5573 5568 5564
5618 5619 5619 5620 5620 5620 5621 5621 5622 5623 5623 5623 5623 5623 5623 5623 5623 5622 5622 5621 5619 5619 5618 5617 5616 5614 5611 5609 5607 5604 5601 5598 5594 5590 5586 5583 5579 5574 5569 5564 5560 5556 5551
5605 5605 5606 5606 5606 5607 5607 5607 5607 5608 5608 5609 5609 5609 5609 5609 5609 5608 5608 5607 5607 5605 5604 5603 5602 5600 5598 5596 5593 5590 5587 5584 5582 5578 5573 5569 5566 5562 5557 5553 5548 5543 5539
5592 5592 5592 5592 5593 5593 5593 5593 5593 5594 5595 5595 5595 5595 5595 5595 5594 5593 5594 5594 5593 5592 5591 5590 5588 5586 5584 5582 5579 5576 5574 5571 5568 5565 5561 5557 5553 5548 5546 5541 5536 5531 5527